#datetime,building,power
2023-11-07T00:00:00,axn,35.58
2023-11-07T00:01:00,axn,36.42
2023-11-07T00:02:00,axn,36.55
2023-11-07T00:03:00,axn,31.90
2023-11-07T00:04:00,axn,32.38
2023-11-07T00:05:00,axn,32.09
2023-11-07T00:06:00,axn,31.62
2023-11-07T00:07:00,axn,31.77
2023-11-07T00:08:00,axn,31.30
2023-11-07T00:09:00,axn,31.56
2023-11-07T00:10:00,axn,31.33
2023-11-07T00:11:00,axn,31.36
2023-11-07T00:12:00,axn,31.26
2023-11-07T00:13:00,axn,31.63
2023-11-07T00:14:00,axn,31.44
2023-11-07T00:15:00,axn,31.30
2023-11-07T00:16:00,axn,31.83
2023-11-07T00:17:00,axn,31.56
2023-11-07T00:18:00,axn,31.39
2023-11-07T00:19:00,axn,31.50
2023-11-07T00:20:00,axn,31.53
2023-11-07T00:21:00,axn,31.76
2023-11-07T00:22:00,axn,32.08
2023-11-07T00:23:00,axn,31.55
2023-11-07T00:24:00,axn,31.36
2023-11-07T00:25:00,axn,31.59
2023-11-07T00:26:00,axn,31.73
2023-11-07T00:27:00,axn,31.53
2023-11-07T00:28:00,axn,33.92
2023-11-07T00:29:00,axn,31.60
2023-11-07T00:30:00,axn,32.00
2023-11-07T00:31:00,axn,31.76
2023-11-07T00:32:00,axn,31.64
2023-11-07T00:33:00,axn,32.10
2023-11-07T00:34:00,axn,31.85
2023-11-07T00:35:00,axn,31.38
2023-11-07T00:36:00,axn,31.29
2023-11-07T00:37:00,axn,31.67
2023-11-07T00:38:00,axn,31.28
2023-11-07T00:39:00,axn,27.58
2023-11-07T00:40:00,axn,27.58
2023-11-07T00:41:00,axn,27.87
2023-11-07T00:42:00,axn,27.27
2023-11-07T00:43:00,axn,27.09
2023-11-07T00:44:00,axn,27.18
2023-11-07T00:45:00,axn,27.45
2023-11-07T00:46:00,axn,26.41
2023-11-07T00:47:00,axn,26.67
2023-11-07T00:48:00,axn,26.50
2023-11-07T00:49:00,axn,26.27
2023-11-07T00:50:00,axn,26.19
2023-11-07T00:51:00,axn,26.43
2023-11-07T00:52:00,axn,26.47
2023-11-07T00:53:00,axn,26.10
2023-11-07T00:54:00,axn,25.84
2023-11-07T00:55:00,axn,25.69
2023-11-07T00:56:00,axn,25.57
2023-11-07T00:57:00,axn,25.48
2023-11-07T00:58:00,axn,25.53
2023-11-07T00:59:00,axn,25.52
2023-11-07T01:00:00,axn,25.59
2023-11-07T01:01:00,axn,25.70
2023-11-07T01:02:00,axn,25.53
2023-11-07T01:03:00,axn,25.64
2023-11-07T01:04:00,axn,25.64
2023-11-07T01:05:00,axn,25.79
2023-11-07T01:06:00,axn,25.59
2023-11-07T01:07:00,axn,25.49
2023-11-07T01:08:00,axn,25.56
2023-11-07T01:09:00,axn,25.58
2023-11-07T01:10:00,axn,25.66
2023-11-07T01:11:00,axn,25.63
2023-11-07T01:12:00,axn,26.27
2023-11-07T01:13:00,axn,25.78
2023-11-07T01:14:00,axn,25.50
2023-11-07T01:15:00,axn,25.24
2023-11-07T01:16:00,axn,25.38
2023-11-07T01:17:00,axn,25.61
2023-11-07T01:18:00,axn,26.24
2023-11-07T01:19:00,axn,25.50
2023-11-07T01:20:00,axn,25.88
2023-11-07T01:21:00,axn,25.62
2023-11-07T01:22:00,axn,25.77
2023-11-07T01:23:00,axn,25.54
2023-11-07T01:24:00,axn,25.47
2023-11-07T01:25:00,axn,25.51
2023-11-07T01:26:00,axn,26.13
2023-11-07T01:27:00,axn,25.47
2023-11-07T01:28:00,axn,28.47
2023-11-07T01:29:00,axn,25.46
2023-11-07T01:30:00,axn,25.58
2023-11-07T01:31:00,axn,25.57
2023-11-07T01:32:00,axn,25.59
2023-11-07T01:33:00,axn,26.43
2023-11-07T01:34:00,axn,25.97
2023-11-07T01:35:00,axn,25.66
2023-11-07T01:36:00,axn,25.65
2023-11-07T01:37:00,axn,25.78
2023-11-07T01:38:00,axn,25.70
2023-11-07T01:39:00,axn,25.76
2023-11-07T01:40:00,axn,25.90
2023-11-07T01:41:00,axn,26.20
2023-11-07T01:42:00,axn,25.60
2023-11-07T01:43:00,axn,25.61
2023-11-07T01:44:00,axn,25.97
2023-11-07T01:45:00,axn,25.50
2023-11-07T01:46:00,axn,26.04
2023-11-07T01:47:00,axn,25.60
2023-11-07T01:48:00,axn,25.44
2023-11-07T01:49:00,axn,25.52
2023-11-07T01:50:00,axn,25.43
2023-11-07T01:51:00,axn,25.61
2023-11-07T01:52:00,axn,26.22
2023-11-07T01:53:00,axn,25.80
2023-11-07T01:54:00,axn,25.44
2023-11-07T01:55:00,axn,25.55
2023-11-07T01:56:00,axn,25.66
2023-11-07T01:57:00,axn,25.42
2023-11-07T01:58:00,axn,25.39
2023-11-07T01:59:00,axn,25.49
2023-11-07T02:00:00,axn,25.32
2023-11-07T02:01:00,axn,25.32
2023-11-07T02:02:00,axn,25.37
2023-11-07T02:03:00,axn,25.20
2023-11-07T02:04:00,axn,25.25
2023-11-07T02:05:00,axn,25.95
2023-11-07T02:06:00,axn,25.45
2023-11-07T02:07:00,axn,25.46
2023-11-07T02:08:00,axn,25.17
2023-11-07T02:09:00,axn,25.10
2023-11-07T02:10:00,axn,25.05
2023-11-07T02:11:00,axn,24.95
2023-11-07T02:12:00,axn,25.28
2023-11-07T02:13:00,axn,25.78
2023-11-07T02:14:00,axn,25.53
2023-11-07T02:15:00,axn,25.37
2023-11-07T02:16:00,axn,25.65
2023-11-07T02:17:00,axn,25.93
2023-11-07T02:18:00,axn,25.77
2023-11-07T02:19:00,axn,25.63
2023-11-07T02:20:00,axn,25.74
2023-11-07T02:21:00,axn,25.38
2023-11-07T02:22:00,axn,25.52
2023-11-07T02:23:00,axn,25.67
2023-11-07T02:24:00,axn,25.42
2023-11-07T02:25:00,axn,25.36
2023-11-07T02:26:00,axn,25.77
2023-11-07T02:27:00,axn,26.12
2023-11-07T02:28:00,axn,25.61
2023-11-07T02:29:00,axn,25.63
2023-11-07T02:30:00,axn,25.68
2023-11-07T02:31:00,axn,25.71
2023-11-07T02:32:00,axn,25.78
2023-11-07T02:33:00,axn,26.15
2023-11-07T02:34:00,axn,25.88
2023-11-07T02:35:00,axn,25.66
2023-11-07T02:36:00,axn,28.42
2023-11-07T02:37:00,axn,28.30
2023-11-07T02:38:00,axn,28.73
2023-11-07T02:39:00,axn,25.97
2023-11-07T02:40:00,axn,26.25
2023-11-07T02:41:00,axn,25.77
2023-11-07T02:42:00,axn,26.04
2023-11-07T02:43:00,axn,25.90
2023-11-07T02:44:00,axn,25.73
2023-11-07T02:45:00,axn,25.65
2023-11-07T02:46:00,axn,31.34
2023-11-07T02:47:00,axn,25.34
2023-11-07T02:48:00,axn,25.45
2023-11-07T02:49:00,axn,25.23
2023-11-07T02:50:00,axn,25.76
2023-11-07T02:51:00,axn,25.22
2023-11-07T02:52:00,axn,25.24
2023-11-07T02:53:00,axn,25.41
2023-11-07T02:54:00,axn,25.32
2023-11-07T02:55:00,axn,25.63
2023-11-07T02:56:00,axn,25.30
2023-11-07T02:57:00,axn,25.93
2023-11-07T02:58:00,axn,25.19
2023-11-07T02:59:00,axn,25.52
2023-11-07T03:00:00,axn,25.43
2023-11-07T03:01:00,axn,25.35
2023-11-07T03:02:00,axn,25.43
2023-11-07T03:03:00,axn,25.50
2023-11-07T03:04:00,axn,25.31
2023-11-07T03:05:00,axn,25.34
2023-11-07T03:06:00,axn,25.43
2023-11-07T03:07:00,axn,25.41
2023-11-07T03:08:00,axn,25.34
2023-11-07T03:09:00,axn,25.27
2023-11-07T03:10:00,axn,25.68
2023-11-07T03:11:00,axn,25.12
2023-11-07T03:12:00,axn,25.19
2023-11-07T03:13:00,axn,25.05
2023-11-07T03:14:00,axn,25.14
2023-11-07T03:15:00,axn,25.19
2023-11-07T03:16:00,axn,25.44
2023-11-07T03:17:00,axn,25.34
2023-11-07T03:18:00,axn,25.77
2023-11-07T03:19:00,axn,25.38
2023-11-07T03:20:00,axn,25.46
2023-11-07T03:21:00,axn,25.44
2023-11-07T03:22:00,axn,25.47
2023-11-07T03:23:00,axn,25.47
2023-11-07T03:24:00,axn,25.77
2023-11-07T03:25:00,axn,25.70
2023-11-07T03:26:00,axn,25.70
2023-11-07T03:27:00,axn,25.63
2023-11-07T03:28:00,axn,25.54
2023-11-07T03:29:00,axn,25.68
2023-11-07T03:30:00,axn,25.60
2023-11-07T03:31:00,axn,25.57
2023-11-07T03:32:00,axn,25.24
2023-11-07T03:33:00,axn,25.16
2023-11-07T03:34:00,axn,25.44
2023-11-07T03:35:00,axn,25.44
2023-11-07T03:36:00,axn,25.71
2023-11-07T03:37:00,axn,25.76
2023-11-07T03:38:00,axn,25.93
2023-11-07T03:39:00,axn,25.30
2023-11-07T03:40:00,axn,35.56
2023-11-07T03:41:00,axn,35.66
2023-11-07T03:42:00,axn,35.70
2023-11-07T03:43:00,axn,35.61
2023-11-07T03:44:00,axn,25.55
2023-11-07T03:45:00,axn,25.62
2023-11-07T03:46:00,axn,25.69
2023-11-07T03:47:00,axn,26.24
2023-11-07T03:48:00,axn,25.79
2023-11-07T03:49:00,axn,25.82
2023-11-07T03:50:00,axn,25.77
2023-11-07T03:51:00,axn,25.74
2023-11-07T03:52:00,axn,25.84
2023-11-07T03:53:00,axn,25.67
2023-11-07T03:54:00,axn,25.89
2023-11-07T03:55:00,axn,25.97
2023-11-07T03:56:00,axn,25.82
2023-11-07T03:57:00,axn,25.39
2023-11-07T03:58:00,axn,25.19
2023-11-07T03:59:00,axn,25.21
2023-11-07T04:00:00,axn,25.23
2023-11-07T04:01:00,axn,25.33
2023-11-07T04:02:00,axn,25.15
2023-11-07T04:03:00,axn,25.10
2023-11-07T04:04:00,axn,25.27
2023-11-07T04:05:00,axn,25.13
2023-11-07T04:06:00,axn,25.43
2023-11-07T04:07:00,axn,25.31
2023-11-07T04:08:00,axn,25.04
2023-11-07T04:09:00,axn,25.03
2023-11-07T04:10:00,axn,25.01
2023-11-07T04:11:00,axn,25.32
2023-11-07T04:12:00,axn,25.56
2023-11-07T04:13:00,axn,25.19
2023-11-07T04:14:00,axn,39.88
2023-11-07T04:15:00,axn,39.62
2023-11-07T04:16:00,axn,39.38
2023-11-07T04:17:00,axn,45.19
2023-11-07T04:18:00,axn,45.49
2023-11-07T04:19:00,axn,45.09
2023-11-07T04:20:00,axn,31.02
2023-11-07T04:21:00,axn,25.35
2023-11-07T04:22:00,axn,25.07
2023-11-07T04:23:00,axn,25.19
2023-11-07T04:24:00,axn,25.10
2023-11-07T04:25:00,axn,25.50
2023-11-07T04:26:00,axn,25.32
2023-11-07T04:27:00,axn,25.31
2023-11-07T04:28:00,axn,25.21
2023-11-07T04:29:00,axn,25.04
2023-11-07T04:30:00,axn,25.51
2023-11-07T04:31:00,axn,25.17
2023-11-07T04:32:00,axn,25.30
2023-11-07T04:33:00,axn,25.19
2023-11-07T04:34:00,axn,25.10
2023-11-07T04:35:00,axn,25.46
2023-11-07T04:36:00,axn,25.51
2023-11-07T04:37:00,axn,25.46
2023-11-07T04:38:00,axn,29.36
2023-11-07T04:39:00,axn,29.00
2023-11-07T04:40:00,axn,26.51
2023-11-07T04:41:00,axn,26.66
2023-11-07T04:42:00,axn,26.55
2023-11-07T04:43:00,axn,26.74
2023-11-07T04:44:00,axn,26.68
2023-11-07T04:45:00,axn,26.64
2023-11-07T04:46:00,axn,26.66
2023-11-07T04:47:00,axn,26.47
2023-11-07T04:48:00,axn,26.37
2023-11-07T04:49:00,axn,26.41
2023-11-07T04:50:00,axn,26.72
2023-11-07T04:51:00,axn,26.51
2023-11-07T04:52:00,axn,26.83
2023-11-07T04:53:00,axn,26.96
2023-11-07T04:54:00,axn,26.87
2023-11-07T04:55:00,axn,26.50
2023-11-07T04:56:00,axn,26.82
2023-11-07T04:57:00,axn,26.41
2023-11-07T04:58:00,axn,26.48
2023-11-07T04:59:00,axn,26.46
2023-11-07T05:00:00,axn,26.42
2023-11-07T05:01:00,axn,23.28
2023-11-07T05:02:00,axn,23.86
2023-11-07T05:03:00,axn,23.48
2023-11-07T05:04:00,axn,23.45
2023-11-07T05:05:00,axn,23.54
2023-11-07T05:06:00,axn,23.52
2023-11-07T05:07:00,axn,23.58
2023-11-07T05:08:00,axn,23.55
2023-11-07T05:09:00,axn,23.81
2023-11-07T05:10:00,axn,23.34
2023-11-07T05:11:00,axn,23.35
2023-11-07T05:12:00,axn,23.19
2023-11-07T05:13:00,axn,23.31
2023-11-07T05:14:00,axn,23.12
2023-11-07T05:15:00,axn,23.93
2023-11-07T05:16:00,axn,24.40
2023-11-07T05:17:00,axn,24.09
2023-11-07T05:18:00,axn,23.99
2023-11-07T05:19:00,axn,24.56
2023-11-07T05:20:00,axn,24.05
2023-11-07T05:21:00,axn,23.53
2023-11-07T05:22:00,axn,23.51
2023-11-07T05:23:00,axn,23.56
2023-11-07T05:24:00,axn,23.58
2023-11-07T05:25:00,axn,23.56
2023-11-07T05:26:00,axn,23.69
2023-11-07T05:27:00,axn,23.63
2023-11-07T05:28:00,axn,23.38
2023-11-07T05:29:00,axn,23.08
2023-11-07T05:30:00,axn,23.48
2023-11-07T05:31:00,axn,23.95
2023-11-07T05:32:00,axn,23.99
2023-11-07T05:33:00,axn,24.00
2023-11-07T05:34:00,axn,24.37
2023-11-07T05:35:00,axn,24.38
2023-11-07T05:36:00,axn,24.48
2023-11-07T05:37:00,axn,24.50
2023-11-07T05:38:00,axn,24.44
2023-11-07T05:39:00,axn,24.30
2023-11-07T05:40:00,axn,24.32
2023-11-07T05:41:00,axn,24.70
2023-11-07T05:42:00,axn,25.07
2023-11-07T05:43:00,axn,25.51
2023-11-07T05:44:00,axn,25.81
2023-11-07T05:45:00,axn,27.81
2023-11-07T05:46:00,axn,27.67
2023-11-07T05:47:00,axn,27.87
2023-11-07T05:48:00,axn,28.19
2023-11-07T05:49:00,axn,27.76
2023-11-07T05:50:00,axn,27.68
2023-11-07T05:51:00,axn,27.98
2023-11-07T05:52:00,axn,30.15
2023-11-07T05:53:00,axn,30.17
2023-11-07T05:54:00,axn,30.08
2023-11-07T05:55:00,axn,27.17
2023-11-07T05:56:00,axn,27.27
2023-11-07T05:57:00,axn,27.63
2023-11-07T05:58:00,axn,27.21
2023-11-07T05:59:00,axn,27.03
2023-11-07T06:00:00,axn,26.96
2023-11-07T06:01:00,axn,26.93
2023-11-07T06:02:00,axn,27.18
2023-11-07T06:03:00,axn,27.21
2023-11-07T06:04:00,axn,27.31
2023-11-07T06:05:00,axn,27.71
2023-11-07T06:06:00,axn,27.32
2023-11-07T06:07:00,axn,27.54
2023-11-07T06:08:00,axn,27.59
2023-11-07T06:09:00,axn,27.72
2023-11-07T06:10:00,axn,27.34
2023-11-07T06:11:00,axn,42.42
2023-11-07T06:12:00,axn,27.23
2023-11-07T06:13:00,axn,27.33
2023-11-07T06:14:00,axn,27.30
2023-11-07T06:15:00,axn,27.28
2023-11-07T06:16:00,axn,26.81
2023-11-07T06:17:00,axn,27.42
2023-11-07T06:18:00,axn,43.12
2023-11-07T06:19:00,axn,27.14
2023-11-07T06:20:00,axn,27.11
2023-11-07T06:21:00,axn,27.15
2023-11-07T06:22:00,axn,27.14
2023-11-07T06:23:00,axn,27.16
2023-11-07T06:24:00,axn,27.43
2023-11-07T06:25:00,axn,27.64
2023-11-07T06:26:00,axn,27.09
2023-11-07T06:27:00,axn,27.17
2023-11-07T06:28:00,axn,27.21
2023-11-07T06:29:00,axn,27.64
2023-11-07T06:30:00,axn,27.45
2023-11-07T06:31:00,axn,27.37
2023-11-07T06:32:00,axn,27.30
2023-11-07T06:33:00,axn,27.66
2023-11-07T06:34:00,axn,27.76
2023-11-07T06:35:00,axn,27.49
2023-11-07T06:36:00,axn,27.50
2023-11-07T06:37:00,axn,27.53
2023-11-07T06:38:00,axn,27.39
2023-11-07T06:39:00,axn,28.04
2023-11-07T06:40:00,axn,27.70
2023-11-07T06:41:00,axn,27.79
2023-11-07T06:42:00,axn,27.76
2023-11-07T06:43:00,axn,27.65
2023-11-07T06:44:00,axn,27.56
2023-11-07T06:45:00,axn,27.51
2023-11-07T06:46:00,axn,27.38
2023-11-07T06:47:00,axn,27.48
2023-11-07T06:48:00,axn,27.40
2023-11-07T06:49:00,axn,27.38
2023-11-07T06:50:00,axn,27.05
2023-11-07T06:51:00,axn,27.22
2023-11-07T06:52:00,axn,27.18
2023-11-07T06:53:00,axn,27.32
2023-11-07T06:54:00,axn,27.42
2023-11-07T06:55:00,axn,27.23
2023-11-07T06:56:00,axn,27.43
2023-11-07T06:57:00,axn,27.50
2023-11-07T06:58:00,axn,27.40
2023-11-07T06:59:00,axn,27.75
2023-11-07T07:00:00,axn,27.37
2023-11-07T07:01:00,axn,31.38
2023-11-07T07:02:00,axn,34.22
2023-11-07T07:03:00,axn,37.39
2023-11-07T07:04:00,axn,35.71
2023-11-07T07:05:00,axn,35.38
2023-11-07T07:06:00,axn,35.54
2023-11-07T07:07:00,axn,36.18
2023-11-07T07:08:00,axn,35.79
2023-11-07T07:09:00,axn,36.21
2023-11-07T07:10:00,axn,36.27
2023-11-07T07:11:00,axn,36.22
2023-11-07T07:12:00,axn,35.43
2023-11-07T07:13:00,axn,35.27
2023-11-07T07:14:00,axn,38.09
2023-11-07T07:15:00,axn,35.12
2023-11-07T07:16:00,axn,34.83
2023-11-07T07:17:00,axn,35.01
2023-11-07T07:18:00,axn,34.86
2023-11-07T07:19:00,axn,35.58
2023-11-07T07:20:00,axn,36.17
2023-11-07T07:21:00,axn,40.28
2023-11-07T07:22:00,axn,34.76
2023-11-07T07:23:00,axn,35.19
2023-11-07T07:24:00,axn,34.64
2023-11-07T07:25:00,axn,37.26
2023-11-07T07:26:00,axn,34.99
2023-11-07T07:27:00,axn,35.01
2023-11-07T07:28:00,axn,34.77
2023-11-07T07:29:00,axn,34.86
2023-11-07T07:30:00,axn,36.00
2023-11-07T07:31:00,axn,35.35
2023-11-07T07:32:00,axn,35.01
2023-11-07T07:33:00,axn,34.58
2023-11-07T07:34:00,axn,34.60
2023-11-07T07:35:00,axn,34.90
2023-11-07T07:36:00,axn,35.11
2023-11-07T07:37:00,axn,34.65
2023-11-07T07:38:00,axn,34.66
2023-11-07T07:39:00,axn,34.93
2023-11-07T07:40:00,axn,34.57
2023-11-07T07:41:00,axn,34.58
2023-11-07T07:42:00,axn,34.90
2023-11-07T07:43:00,axn,34.93
2023-11-07T07:44:00,axn,35.19
2023-11-07T07:45:00,axn,34.94
2023-11-07T07:46:00,axn,35.07
2023-11-07T07:47:00,axn,35.33
2023-11-07T07:48:00,axn,35.22
2023-11-07T07:49:00,axn,35.11
2023-11-07T07:50:00,axn,35.82
2023-11-07T07:51:00,axn,35.27
2023-11-07T07:52:00,axn,35.50
2023-11-07T07:53:00,axn,35.85
2023-11-07T07:54:00,axn,35.45
2023-11-07T07:55:00,axn,35.90
2023-11-07T07:56:00,axn,35.87
2023-11-07T07:57:00,axn,35.95
2023-11-07T07:58:00,axn,36.08
2023-11-07T07:59:00,axn,35.98
2023-11-07T08:00:00,axn,35.79
2023-11-07T08:01:00,axn,35.88
2023-11-07T08:02:00,axn,47.97
2023-11-07T08:03:00,axn,47.95
2023-11-07T08:04:00,axn,48.16
2023-11-07T08:05:00,axn,48.36
2023-11-07T08:06:00,axn,40.51
2023-11-07T08:07:00,axn,40.90
2023-11-07T08:08:00,axn,40.92
2023-11-07T08:09:00,axn,40.74
2023-11-07T08:10:00,axn,40.65
2023-11-07T08:11:00,axn,41.56
2023-11-07T08:12:00,axn,41.82
2023-11-07T08:13:00,axn,41.57
2023-11-07T08:14:00,axn,41.87
2023-11-07T08:15:00,axn,42.04
2023-11-07T08:16:00,axn,42.64
2023-11-07T08:17:00,axn,42.69
2023-11-07T08:18:00,axn,42.77
2023-11-07T08:19:00,axn,42.63
2023-11-07T08:20:00,axn,43.07
2023-11-07T08:21:00,axn,42.63
2023-11-07T08:22:00,axn,43.04
2023-11-07T08:23:00,axn,42.94
2023-11-07T08:24:00,axn,42.61
2023-11-07T08:25:00,axn,43.45
2023-11-07T08:26:00,axn,44.58
2023-11-07T08:27:00,axn,44.05
2023-11-07T08:28:00,axn,43.51
2023-11-07T08:29:00,axn,43.56
2023-11-07T08:30:00,axn,42.88
2023-11-07T08:31:00,axn,43.10
2023-11-07T08:32:00,axn,43.72
2023-11-07T08:33:00,axn,43.60
2023-11-07T08:34:00,axn,43.97
2023-11-07T08:35:00,axn,44.19
2023-11-07T08:36:00,axn,44.08
2023-11-07T08:37:00,axn,44.40
2023-11-07T08:38:00,axn,43.83
2023-11-07T08:39:00,axn,43.72
2023-11-07T08:40:00,axn,43.64
2023-11-07T08:41:00,axn,43.65
2023-11-07T08:42:00,axn,44.29
2023-11-07T08:43:00,axn,44.68
2023-11-07T08:44:00,axn,44.68
2023-11-07T08:45:00,axn,45.14
2023-11-07T08:46:00,axn,44.53
2023-11-07T08:47:00,axn,44.64
2023-11-07T08:48:00,axn,44.41
2023-11-07T08:49:00,axn,44.46
2023-11-07T08:50:00,axn,44.57
2023-11-07T08:51:00,axn,44.63
2023-11-07T08:52:00,axn,44.61
2023-11-07T08:53:00,axn,44.50
2023-11-07T08:54:00,axn,44.48
2023-11-07T08:55:00,axn,55.48
2023-11-07T08:56:00,axn,55.29
2023-11-07T08:57:00,axn,55.09
2023-11-07T08:58:00,axn,54.81
2023-11-07T08:59:00,axn,54.98
2023-11-07T09:00:00,axn,44.17
2023-11-07T09:01:00,axn,43.77
2023-11-07T09:02:00,axn,52.32
2023-11-07T09:03:00,axn,52.29
2023-11-07T09:04:00,axn,52.09
2023-11-07T09:05:00,axn,52.21
2023-11-07T09:06:00,axn,52.56
2023-11-07T09:07:00,axn,53.87
2023-11-07T09:08:00,axn,53.01
2023-11-07T09:09:00,axn,52.85
2023-11-07T09:10:00,axn,52.97
2023-11-07T09:11:00,axn,67.84
2023-11-07T09:12:00,axn,67.73
2023-11-07T09:13:00,axn,66.75
2023-11-07T09:14:00,axn,66.56
2023-11-07T09:15:00,axn,66.36
2023-11-07T09:16:00,axn,52.30
2023-11-07T09:17:00,axn,52.15
2023-11-07T09:18:00,axn,52.16
2023-11-07T09:19:00,axn,52.27
2023-11-07T09:20:00,axn,52.29
2023-11-07T09:21:00,axn,52.39
2023-11-07T09:22:00,axn,59.33
2023-11-07T09:23:00,axn,52.58
2023-11-07T09:24:00,axn,52.54
2023-11-07T09:25:00,axn,52.50
2023-11-07T09:26:00,axn,52.35
2023-11-07T09:27:00,axn,52.17
2023-11-07T09:28:00,axn,55.84
2023-11-07T09:29:00,axn,52.23
2023-11-07T09:30:00,axn,52.34
2023-11-07T09:31:00,axn,52.78
2023-11-07T09:32:00,axn,53.41
2023-11-07T09:33:00,axn,45.83
2023-11-07T09:34:00,axn,46.05
2023-11-07T09:35:00,axn,45.51
2023-11-07T09:36:00,axn,45.60
2023-11-07T09:37:00,axn,45.32
2023-11-07T09:38:00,axn,48.07
2023-11-07T09:39:00,axn,47.83
2023-11-07T09:40:00,axn,48.22
2023-11-07T09:41:00,axn,45.34
2023-11-07T09:42:00,axn,46.06
2023-11-07T09:43:00,axn,47.21
2023-11-07T09:44:00,axn,47.45
2023-11-07T09:45:00,axn,46.17
2023-11-07T09:46:00,axn,47.67
2023-11-07T09:47:00,axn,47.09
2023-11-07T09:48:00,axn,47.37
2023-11-07T09:49:00,axn,47.10
2023-11-07T09:50:00,axn,47.20
2023-11-07T09:51:00,axn,47.26
2023-11-07T09:52:00,axn,47.16
2023-11-07T09:53:00,axn,47.69
2023-11-07T09:54:00,axn,47.19
2023-11-07T09:55:00,axn,47.50
2023-11-07T09:56:00,axn,47.64
2023-11-07T09:57:00,axn,48.69
2023-11-07T09:58:00,axn,48.06
2023-11-07T09:59:00,axn,48.51
2023-11-07T10:00:00,axn,48.92
2023-11-07T10:01:00,axn,48.60
2023-11-07T10:02:00,axn,48.54
2023-11-07T10:03:00,axn,56.69
2023-11-07T10:04:00,axn,56.67
2023-11-07T10:05:00,axn,56.46
2023-11-07T10:06:00,axn,56.61
2023-11-07T10:07:00,axn,56.42
2023-11-07T10:08:00,axn,56.56
2023-11-07T10:09:00,axn,56.34
2023-11-07T10:10:00,axn,56.14
2023-11-07T10:11:00,axn,56.49
2023-11-07T10:12:00,axn,66.88
2023-11-07T10:13:00,axn,56.58
2023-11-07T10:14:00,axn,56.31
2023-11-07T10:15:00,axn,56.46
2023-11-07T10:16:00,axn,56.48
2023-11-07T10:17:00,axn,57.07
2023-11-07T10:18:00,axn,56.67
2023-11-07T10:19:00,axn,57.51
2023-11-07T10:20:00,axn,57.07
2023-11-07T10:21:00,axn,56.89
2023-11-07T10:22:00,axn,57.17
2023-11-07T10:23:00,axn,57.30
2023-11-07T10:24:00,axn,57.37
2023-11-07T10:25:00,axn,57.23
2023-11-07T10:26:00,axn,57.42
2023-11-07T10:27:00,axn,57.30
2023-11-07T10:28:00,axn,57.77
2023-11-07T10:29:00,axn,57.19
2023-11-07T10:30:00,axn,57.03
2023-11-07T10:31:00,axn,57.07
2023-11-07T10:32:00,axn,57.29
2023-11-07T10:33:00,axn,56.88
2023-11-07T10:34:00,axn,56.72
2023-11-07T10:35:00,axn,60.00
2023-11-07T10:36:00,axn,60.32
2023-11-07T10:37:00,axn,56.84
2023-11-07T10:38:00,axn,57.22
2023-11-07T10:39:00,axn,57.46
2023-11-07T10:40:00,axn,70.67
2023-11-07T10:41:00,axn,57.62
2023-11-07T10:42:00,axn,57.82
2023-11-07T10:43:00,axn,57.54
2023-11-07T10:44:00,axn,56.74
2023-11-07T10:45:00,axn,57.13
2023-11-07T10:46:00,axn,56.71
2023-11-07T10:47:00,axn,56.35
2023-11-07T10:48:00,axn,59.70
2023-11-07T10:49:00,axn,58.69
2023-11-07T10:50:00,axn,58.51
2023-11-07T10:51:00,axn,58.85
2023-11-07T10:52:00,axn,56.14
2023-11-07T10:53:00,axn,56.03
2023-11-07T10:54:00,axn,56.15
2023-11-07T10:55:00,axn,56.75
2023-11-07T10:56:00,axn,55.38
2023-11-07T10:57:00,axn,55.69
2023-11-07T10:58:00,axn,55.16
2023-11-07T10:59:00,axn,55.31
2023-11-07T11:00:00,axn,55.94
2023-11-07T11:01:00,axn,56.58
2023-11-07T11:02:00,axn,56.18
2023-11-07T11:03:00,axn,55.82
2023-11-07T11:04:00,axn,55.31
2023-11-07T11:05:00,axn,55.29
2023-11-07T11:06:00,axn,55.26
2023-11-07T11:07:00,axn,56.20
2023-11-07T11:08:00,axn,54.01
2023-11-07T11:09:00,axn,54.75
2023-11-07T11:10:00,axn,54.75
2023-11-07T11:11:00,axn,54.41
2023-11-07T11:12:00,axn,54.16
2023-11-07T11:13:00,axn,55.77
2023-11-07T11:14:00,axn,53.85
2023-11-07T11:15:00,axn,54.11
2023-11-07T11:16:00,axn,53.99
2023-11-07T11:17:00,axn,56.50
2023-11-07T11:18:00,axn,56.54
2023-11-07T11:19:00,axn,56.80
2023-11-07T11:20:00,axn,58.46
2023-11-07T11:21:00,axn,54.33
2023-11-07T11:22:00,axn,54.65
2023-11-07T11:23:00,axn,55.70
2023-11-07T11:24:00,axn,55.01
2023-11-07T11:25:00,axn,54.66
2023-11-07T11:26:00,axn,54.48
2023-11-07T11:27:00,axn,54.81
2023-11-07T11:28:00,axn,54.48
2023-11-07T11:29:00,axn,54.16
2023-11-07T11:30:00,axn,60.09
2023-11-07T11:31:00,axn,60.33
2023-11-07T11:32:00,axn,61.15
2023-11-07T11:33:00,axn,55.03
2023-11-07T11:34:00,axn,54.82
2023-11-07T11:35:00,axn,55.41
2023-11-07T11:36:00,axn,54.63
2023-11-07T11:37:00,axn,54.68
2023-11-07T11:38:00,axn,54.10
2023-11-07T11:39:00,axn,56.77
2023-11-07T11:40:00,axn,57.03
2023-11-07T11:41:00,axn,53.00
2023-11-07T11:42:00,axn,52.91
2023-11-07T11:43:00,axn,52.84
2023-11-07T11:44:00,axn,52.99
2023-11-07T11:45:00,axn,52.87
2023-11-07T11:46:00,axn,52.79
2023-11-07T11:47:00,axn,52.84
2023-11-07T11:48:00,axn,67.33
2023-11-07T11:49:00,axn,66.91
2023-11-07T11:50:00,axn,66.99
2023-11-07T11:51:00,axn,65.47
2023-11-07T11:52:00,axn,64.44
2023-11-07T11:53:00,axn,64.65
2023-11-07T11:54:00,axn,50.94
2023-11-07T11:55:00,axn,50.62
2023-11-07T11:56:00,axn,50.53
2023-11-07T11:57:00,axn,50.70
2023-11-07T11:58:00,axn,50.21
2023-11-07T11:59:00,axn,50.52
2023-11-07T12:00:00,axn,51.54
2023-11-07T12:01:00,axn,50.60
2023-11-07T12:02:00,axn,51.34
2023-11-07T12:03:00,axn,50.64
2023-11-07T12:04:00,axn,53.54
2023-11-07T12:05:00,axn,52.27
2023-11-07T12:06:00,axn,51.08
2023-11-07T12:07:00,axn,52.73
2023-11-07T12:08:00,axn,53.18
2023-11-07T12:09:00,axn,52.85
2023-11-07T12:10:00,axn,53.37
2023-11-07T12:11:00,axn,56.12
2023-11-07T12:12:00,axn,55.19
2023-11-07T12:13:00,axn,56.10
2023-11-07T12:14:00,axn,55.16
2023-11-07T12:15:00,axn,52.53
2023-11-07T12:16:00,axn,52.06
2023-11-07T12:17:00,axn,53.34
2023-11-07T12:18:00,axn,52.82
2023-11-07T12:19:00,axn,54.78
2023-11-07T12:20:00,axn,52.74
2023-11-07T12:21:00,axn,52.84
2023-11-07T12:22:00,axn,52.08
2023-11-07T12:23:00,axn,52.25
2023-11-07T12:24:00,axn,52.02
2023-11-07T12:25:00,axn,52.01
2023-11-07T12:26:00,axn,52.86
2023-11-07T12:27:00,axn,53.76
2023-11-07T12:28:00,axn,54.70
2023-11-07T12:29:00,axn,54.60
2023-11-07T12:30:00,axn,54.63
2023-11-07T12:31:00,axn,54.44
2023-11-07T12:32:00,axn,54.54
2023-11-07T12:33:00,axn,53.87
2023-11-07T12:34:00,axn,70.53
2023-11-07T12:35:00,axn,53.66
2023-11-07T12:36:00,axn,53.24
2023-11-07T12:37:00,axn,53.81
2023-11-07T12:38:00,axn,56.21
2023-11-07T12:39:00,axn,52.82
2023-11-07T12:40:00,axn,52.61
2023-11-07T12:41:00,axn,63.72
2023-11-07T12:42:00,axn,64.42
2023-11-07T12:43:00,axn,63.70
2023-11-07T12:44:00,axn,67.35
2023-11-07T12:45:00,axn,63.80
2023-11-07T12:46:00,axn,63.63
2023-11-07T12:47:00,axn,55.98
2023-11-07T12:48:00,axn,56.62
2023-11-07T12:49:00,axn,56.46
2023-11-07T12:50:00,axn,59.68
2023-11-07T12:51:00,axn,54.41
2023-11-07T12:52:00,axn,54.08
2023-11-07T12:53:00,axn,54.08
2023-11-07T12:54:00,axn,53.71
2023-11-07T12:55:00,axn,53.94
2023-11-07T12:56:00,axn,53.72
2023-11-07T12:57:00,axn,53.47
2023-11-07T12:58:00,axn,56.12
2023-11-07T12:59:00,axn,53.31
2023-11-07T13:00:00,axn,53.39
2023-11-07T13:01:00,axn,53.48
2023-11-07T13:02:00,axn,53.33
2023-11-07T13:03:00,axn,45.35
2023-11-07T13:04:00,axn,46.07
2023-11-07T13:05:00,axn,45.43
2023-11-07T13:06:00,axn,45.46
2023-11-07T13:07:00,axn,46.56
2023-11-07T13:08:00,axn,46.13
2023-11-07T13:09:00,axn,46.04
2023-11-07T13:10:00,axn,45.87
2023-11-07T13:11:00,axn,45.72
2023-11-07T13:12:00,axn,45.20
2023-11-07T13:13:00,axn,45.14
2023-11-07T13:14:00,axn,44.82
2023-11-07T13:15:00,axn,45.25
2023-11-07T13:16:00,axn,44.84
2023-11-07T13:17:00,axn,44.67
2023-11-07T13:18:00,axn,44.26